Satellite-Ground Cal/Val Region Overpasses Predictions

Prediction of Satellite NPP Overpassing Cal/Val Region: PacNW

Region Location: (Latitude: 10.00, Longitude: 139.50) to (Latitude: 22.70, Longitude: 165.60).

Table of predicted overpasses for the next 14.0 days since TLE Epoch: 12/21/2013
Interval Starting Time Starting Location Ending Time Ending Location
1 12/21/2013 15:51:30 ( 22.67, 147.57) 12/21/2013 15:55:05 ( 10.05, 144.56)
2 12/22/2013 03:00:35 ( 10.04, 155.07) 12/22/2013 03:04:10 ( 22.66, 152.06)
3 12/22/2013 15:32:29 ( 22.67, 152.33) 12/22/2013 15:36:04 ( 10.05, 149.32)
4 12/23/2013 02:41:35 ( 10.04, 159.82) 12/23/2013 02:45:10 ( 22.66, 156.81)
5 12/23/2013 15:13:29 ( 22.67, 157.09) 12/23/2013 15:17:04 ( 10.05, 154.07)
6 12/24/2013 02:22:34 ( 10.04, 164.58) 12/24/2013 02:26:09 ( 22.66, 161.57)
7 12/24/2013 14:54:28 ( 22.67, 161.84) 12/24/2013 14:58:03 ( 10.05, 158.83)
8 12/25/2013 03:45:04 ( 10.04, 143.96) 12/25/2013 03:48:39 ( 22.66, 140.95)
9 12/25/2013 14:36:38 ( 18.56, 165.59) 12/25/2013 14:39:03 ( 10.04, 163.59)
10 12/25/2013 16:16:58 ( 22.66, 141.22) 12/25/2013 16:18:58 ( 15.62, 139.51)
11 12/26/2013 03:26:03 ( 10.04, 148.72) 12/26/2013 03:29:38 ( 22.66, 145.71)
12 12/26/2013 15:57:57 ( 22.66, 145.98) 12/26/2013 16:01:32 ( 10.04, 142.97)
13 12/27/2013 03:07:03 ( 10.05, 153.48) 12/27/2013 03:10:38 ( 22.67, 150.46)
14 12/27/2013 15:38:57 ( 22.65, 150.74) 12/27/2013 15:42:32 ( 10.03, 147.72)
15 12/28/2013 02:48:03 ( 10.05, 158.23) 12/28/2013 02:51:38 ( 22.67, 155.22)
16 12/28/2013 15:19:56 ( 22.65, 155.49) 12/28/2013 15:23:31 ( 10.03, 152.48)
17 12/29/2013 02:29:02 ( 10.06, 162.99) 12/29/2013 02:32:37 ( 22.68, 159.97)
18 12/29/2013 15:00:56 ( 22.64, 160.25) 12/29/2013 15:04:31 ( 10.02, 157.23)
19 12/30/2013 02:12:37 ( 19.17, 165.60) 12/30/2013 02:13:37 ( 22.68, 164.73)
20 12/30/2013 03:51:31 ( 10.01, 142.38) 12/30/2013 03:54:57 ( 22.10, 139.50)
21 12/30/2013 14:41:54 ( 22.69, 165.02) 12/30/2013 14:45:30 ( 10.01, 161.99)
22 12/30/2013 16:23:24 ( 22.69, 139.64) 12/30/2013 16:23:33 ( 22.16, 139.51)
23 12/31/2013 03:32:30 ( 10.01, 147.14) 12/31/2013 03:36:06 ( 22.69, 144.11)
24 12/31/2013 16:04:24 ( 22.68, 144.40) 12/31/2013 16:08:00 ( 10.00, 141.37)
25 01/01/2014 03:13:30 ( 10.02, 151.89) 01/01/2014 03:17:05 ( 22.64, 148.88)
26 01/01/2014 15:45:23 ( 22.67, 149.15) 01/01/2014 15:48:58 ( 10.05, 146.14)
27 01/02/2014 02:54:29 ( 10.03, 156.65) 01/02/2014 02:58:04 ( 22.65, 153.63)
28 01/02/2014 15:26:23 ( 22.66, 153.91) 01/02/2014 15:29:58 ( 10.04, 150.89)
29 01/03/2014 02:35:29 ( 10.04, 161.40) 01/03/2014 02:39:04 ( 22.66, 158.39)
30 01/03/2014 15:07:22 ( 22.65, 158.66) 01/03/2014 15:10:57 ( 10.03, 155.65)
31 01/04/2014 02:17:10 ( 12.52, 165.59) 01/04/2014 02:20:03 ( 22.68, 163.14)


NCC Satellite Cal/Val Overpasses Prediction Service
